Bismarck, ND

7:54 PM CST on November 18, 2017 (GMT -0600)
Bismarck Municipal

Weather History for KBIS - October, 2014

Change the Weather History Date:

Friday, October 24, 2014

  Actual Average Record
Temperature  
Mean Temperature 55 °F 41 °F  
Max Temperature 73 °F 53 °F 80 °F (1927)
Min Temperature 37 °F 29 °F 7 °F (1887)
Degree Days  
Heating Degree Days 10 24  
Month to date heating degree days 357 445  
Since 1 July heating degree days 607 731  
Cooling Degree Days 0 0  
Month to date cooling degree days 0 0  
Year to date cooling degree days 457 519  
Growing Degree Days 5 (Base 50)    
Moisture  
Dew Point 34 °F    
Average Humidity 54    
Maximum Humidity 82    
Minimum Humidity 25    
Precipitation  
Precipitation 0.00 in 0.04 in 0.78 in (1875)
Month to date precipitation 0.07 1.00  
Year to date precipitation 13.13 16.40  
Snow  
Snow 0.00 in - 1.50 in (1919)
Month to date snowfall 0.0  
Since 1 July snowfall 0.0  
Since 1 September snowfall 0.0  
Snow Depth 0.00 in    
Sea Level Pressure  
Sea Level Pressure 29.92 in    
Wind  
Wind Speed 8 mph (West)    
Max Wind Speed 24 mph    
Max Gust Speed 31 mph    
Visibility 10 miles    
Events      
T = Trace of Precipitation, MM = Missing Value Source: NWS Daily Summary

Daily Weather History Graph

Daily Weather History Graph

Search for Another Location

Airport or City:

Trip Planner

Search our weather history database for the weather conditions in past years. The results will help you decide how hot, cold, wet, or windy it might be!

Date:

Astronomy

Oct. 24, 2014 Rise Set
Actual Time 8:13 AM CDT 6:39 PM CDT
Civil Twilight 7:42 AM CDT 7:11 PM CDT
Nautical Twilight 7:07 AM CDT 7:46 PM CDT
Astronomical Twilight 6:31 AM CDT 8:21 PM CDT
Moon 8:56 AM CDT (10/24) 7:18 PM CDT (10/24)
Length of Visible Light 11h 28m
Length of Day
10h 26m
New Moon, 1% of the Moon is Illuminated
Oct 24
New Moon
Oct 30
First Quarter
Nov 6
Full
Nov 14
Last Quarter
Nov 22
New

Hourly Weather History & Observations

Time (CDT) Temp. Windchill Dew Point Humidity Pressure Visibility Wind Dir Wind Speed Gust Speed Precip Events Conditions
12:52 AM 51.1 °F - 32.0 °F 48% 29.82 in 10.0 mi SW 8.1 mph - N/A   Clear
1:52 AM 50.0 °F - 32.0 °F 50% 29.82 in 10.0 mi WSW 5.8 mph - N/A   Clear
2:52 AM 41.0 °F 39.0 °F 32.0 °F 70% 29.82 in 10.0 mi SE 3.5 mph - N/A   Clear
3:52 AM 44.1 °F - 32.0 °F 63% 29.83 in 10.0 mi Calm Calm - N/A   Clear
4:52 AM 39.2 °F - 30.2 °F 70% 29.82 in 10.0 mi Calm Calm - N/A   Clear
5:52 AM 41.0 °F - 32.0 °F 70% 29.84 in 10.0 mi Calm Calm - N/A   Clear
6:52 AM 39.0 °F - 32.0 °F 76% 29.85 in 10.0 mi Calm Calm - N/A   Clear
7:52 AM 39.0 °F 36.8 °F 33.1 °F 79% 29.87 in 10.0 mi West 3.5 mph - N/A   Clear
8:52 AM 37.0 °F - 32.0 °F 82% 29.89 in 10.0 mi Calm Calm - N/A   Clear
9:52 AM 48.0 °F - 35.1 °F 61% 29.90 in 10.0 mi Calm Calm - N/A   Clear
10:52 AM 59.0 °F - 37.9 °F 46% 29.90 in 10.0 mi West 6.9 mph - N/A   Clear
11:52 AM 64.0 °F - 39.0 °F 40% 29.92 in 10.0 mi NW 6.9 mph - N/A   Scattered Clouds
12:52 PM 69.8 °F - 39.2 °F 33% 29.91 in 10.0 mi NW 13.8 mph 21.9 mph N/A   Clear
1:52 PM 72.0 °F - 39.0 °F 30% 29.91 in 10.0 mi NW 17.3 mph 23.0 mph N/A   Clear
2:52 PM 73.0 °F - 36.0 °F 26% 29.90 in 10.0 mi WNW 18.4 mph 24.2 mph N/A   Clear
3:52 PM 68.0 °F - 35.1 °F 30% 29.92 in 10.0 mi WNW 19.6 mph 28.8 mph N/A   Clear
4:52 PM 66.0 °F - 36.0 °F 33% 29.96 in 10.0 mi WNW 16.1 mph 23.0 mph N/A   Partly Cloudy
5:52 PM 64.0 °F - 34.0 °F 33% 29.97 in 10.0 mi West 13.8 mph - N/A   Mostly Cloudy
6:52 PM 62.1 °F - 35.1 °F 37% 29.99 in 10.0 mi West 10.4 mph - N/A   Mostly Cloudy
7:52 PM 57.0 °F - 33.1 °F 40% 30.01 in 10.0 mi West 8.1 mph - N/A   Clear
8:52 PM 51.1 °F - 32.0 °F 48% 30.04 in 10.0 mi West 8.1 mph - N/A   Clear
9:52 PM 48.9 °F - 33.1 °F 54% 30.05 in 10.0 mi West 6.9 mph - N/A   Clear
10:52 PM 48.0 °F - 32.0 °F 54% 30.06 in 10.0 mi West 11.5 mph - N/A   Clear
11:52 PM 46.9 °F - 30.9 °F 54% 30.06 in 10.0 mi NW 8.1 mph - N/A   Clear